�������l�o���
Date,Time,MP-1(��Sv/h),MP-2(��Sv/h),MP-3(��Sv/h),MP-4(��Sv/h),MP-5(��Sv/h),MP-6(��Sv/h),MP-7(��Sv/h),MP-8(��Sv/h),����,����(m/s),���J
2022/04/02,00:00,0.581,0.866,0.551,1.065,0.750,0.347,0.603,0.573,�k��,5.8,��
2022/04/02,00:10,0.583,0.868,0.550,1.066,0.751,0.348,0.605,0.571,�k��,4.3,��
2022/04/02,00:20,0.580,0.866,0.549,1.069,0.749,0.348,0.603,0.571,�k��,4.3,��
2022/04/02,00:30,0.581,0.866,0.551,1.069,0.751,0.347,0.604,0.571,�k��,4.4,��
2022/04/02,00:40,0.582,0.866,0.549,1.067,0.747,0.348,0.603,0.571,�k��,4.0,��
2022/04/02,00:50,0.581,0.867,0.549,1.068,0.750,0.347,0.603,0.571,�k�k��,5.4,��
2022/04/02,01:00,0.582,0.869,0.552,1.066,0.751,0.349,0.603,0.572,�k�k��,4.4,��
2022/04/02,01:10,0.582,0.868,0.551,1.067,0.748,0.349,0.604,0.572,�k�k��,5.1,��
2022/04/02,01:20,0.582,0.867,0.551,1.068,0.749,0.348,0.603,0.571,�k,2.9,��
2022/04/02,01:30,0.581,0.867,0.551,1.069,0.750,0.348,0.605,0.572,�k,3.0,��
2022/04/02,01:40,0.583,0.866,0.553,1.067,0.749,0.348,0.603,0.572,�k,5.1,��
2022/04/02,01:50,0.582,0.865,0.551,1.064,0.750,0.348,0.604,0.570,�k,6.3,��
2022/04/02,02:00,0.582,0.867,0.552,1.066,0.750,0.349,0.604,0.572,�k,7.1,��
2022/04/02,02:10,0.580,0.867,0.551,1.069,0.748,0.347,0.603,0.572,�k,6.0,��
2022/04/02,02:20,0.581,0.868,0.548,1.069,0.749,0.349,0.602,0.570,�k,4.2,��
2022/04/02,02:30,0.581,0.868,0.550,1.067,0.749,0.348,0.605,0.571,�k��,2.6,��
2022/04/02,02:40,0.581,0.866,0.550,1.068,0.749,0.348,0.604,0.572,���k��,2.6,��
2022/04/02,02:50,0.579,0.867,0.551,1.066,0.749,0.346,0.604,0.572,�k��,3.2,��
2022/04/02,03:00,0.581,0.868,0.549,1.065,0.748,0.348,0.604,0.572,�k��,4.5,��
2022/04/02,03:10,0.580,0.867,0.550,1.066,0.749,0.348,0.604,0.571,�k�k��,5.0,��
2022/04/02,03:20,0.580,0.866,0.550,1.069,0.750,0.350,0.604,0.571,�k�k��,4.4,��
2022/04/02,03:30,0.580,0.867,0.550,1.066,0.750,0.348,0.604,0.572,�k��,4.7,��
2022/04/02,03:40,0.580,0.866,0.550,1.065,0.749,0.347,0.603,0.572,�k�k��,4.2,��
2022/04/02,03:50,0.582,0.868,0.549,1.069,0.750,0.348,0.606,0.571,�k�k��,4.0,��
2022/04/02,04:00,0.580,0.865,0.549,1.067,0.747,0.348,0.604,0.572,�k��,4.5,��
2022/04/02,04:10,0.580,0.867,0.551,1.068,0.747,0.347,0.605,0.572,�k�k��,4.7,��
2022/04/02,04:20,0.580,0.867,0.550,1.066,0.748,0.347,0.603,0.572,�k�k��,4.7,��
2022/04/02,04:30,0.581,0.866,0.548,1.067,0.749,0.348,0.602,0.572,�k�k��,5.0,��
2022/04/02,04:40,0.580,0.867,0.549,1.068,0.750,0.348,0.604,0.571,�k�k��,5.1,��
2022/04/02,04:50,0.580,0.866,0.548,1.066,0.749,0.347,0.603,0.571,�k�k��,4.8,��
2022/04/02,05:00,0.579,0.866,0.550,1.065,0.749,0.347,0.603,0.571,�k�k��,4.2,��
2022/04/02,05:10,0.580,0.866,0.549,1.066,0.750,0.347,0.602,0.571,�k��,3.5,��
2022/04/02,05:20,0.580,0.866,0.550,1.067,0.748,0.348,0.605,0.572,�k��,3.9,��
2022/04/02,05:30,0.581,0.867,0.549,1.065,0.749,0.349,0.603,0.571,�k��,3.3,��
2022/04/02,05:40,0.580,0.865,0.550,1.068,0.749,0.346,0.602,0.572,�k��,3.8,��
2022/04/02,05:50,0.579,0.866,0.551,1.068,0.749,0.348,0.603,0.570,�k��,3.8,��
2022/04/02,06:00,0.580,0.866,0.550,1.067,0.749,0.348,0.603,0.571,�k��,3.7,��
2022/04/02,06:10,0.580,0.866,0.549,1.067,0.750,0.347,0.602,0.572,�k��,3.0,��
2022/04/02,06:20,0.581,0.865,0.549,1.069,0.749,0.348,0.603,0.572,�k��,3.2,��
2022/04/02,06:30,0.580,0.867,0.548,1.067,0.748,0.347,0.603,0.571,�k��,2.8,��
2022/04/02,06:40,0.580,0.868,0.548,1.069,0.750,0.349,0.604,0.571,�k��,2.6,��
2022/04/02,06:50,0.581,0.868,0.549,1.064,0.748,0.347,0.604,0.571,�k��,2.6,��
2022/04/02,07:00,0.580,0.866,0.550,1.068,0.749,0.349,0.603,0.572,�k��,2.6,��
2022/04/02,07:10,0.580,0.866,0.550,1.067,0.750,0.349,0.604,0.571,�k�k��,2.3,��
2022/04/02,07:20,0.580,0.868,0.552,1.066,0.749,0.347,0.604,0.572,�k,2.0,��
2022/04/02,07:30,0.580,0.869,0.549,1.069,0.749,0.348,0.603,0.571,�k,2.0,��
2022/04/02,07:40,0.581,0.868,0.549,1.069,0.747,0.349,0.605,0.572,�k�k��,3.1,��
2022/04/02,07:50,0.581,0.869,0.550,1.068,0.748,0.348,0.604,0.571,�k��,2.8,��
2022/04/02,08:00,0.583,0.868,0.551,1.068,0.750,0.347,0.604,0.570,�k,2.6,��
2022/04/02,08:10,0.582,0.870,0.549,1.067,0.749,0.346,0.604,0.571,�k��,2.6,��
2022/04/02,08:20,0.582,0.864,0.550,1.067,0.748,0.347,0.604,0.572,���k��,2.9,��
2022/04/02,08:30,0.583,0.865,0.551,1.067,0.750,0.346,0.605,0.573,�k��,2.6,��
2022/04/02,08:40,0.582,0.865,0.550,1.069,0.749,0.348,0.605,0.572,���k��,3.3,��
2022/04/02,08:50,0.582,0.865,0.551,1.066,0.750,0.348,0.605,0.572,�k��,3.1,��
2022/04/02,09:00,0.582,0.867,0.551,1.068,0.749,0.347,0.602,0.573,���k��,4.2,��
2022/04/02,09:10,0.580,0.865,0.550,1.068,0.750,0.348,0.603,0.571,���k��,4.9,��
2022/04/02,09:20,0.582,0.866,0.548,1.069,0.750,0.348,0.603,0.570,���k��,4.2,��
2022/04/02,09:30,0.582,0.866,0.550,1.068,0.752,0.348,0.601,0.571,�k��,3.2,��
2022/04/02,09:40,0.582,0.863,0.551,1.069,0.751,0.348,0.602,0.570,���k��,4.2,��
2022/04/02,09:50,0.581,0.865,0.551,1.067,0.750,0.349,0.602,0.571,��,4.2,��
2022/04/02,10:00,0.583,0.864,0.552,1.067,0.751,0.347,0.603,0.570,���k��,3.9,��
2022/04/02,10:10,0.582,0.867,0.550,1.068,0.751,0.347,0.603,0.570,��,4.1,��
2022/04/02,10:20,0.581,0.866,0.550,1.070,0.751,0.347,0.603,0.568,��,3.9,��
2022/04/02,10:30,0.582,0.868,0.549,1.070,0.752,0.348,0.603,0.568,��,4.1,��
2022/04/02,10:40,0.582,0.867,0.551,1.069,0.751,0.349,0.603,0.569,��,3.8,��
2022/04/02,10:50,0.584,0.868,0.550,1.068,0.754,0.347,0.603,0.569,��,4.2,��
2022/04/02,11:00,0.582,0.868,0.552,1.069,0.752,0.349,0.604,0.569,���쓌,4.7,��
2022/04/02,11:10,0.583,0.867,0.549,1.068,0.751,0.348,0.602,0.570,���쓌,4.9,��
2022/04/02,11:20,0.582,0.867,0.551,1.069,0.750,0.348,0.602,0.572,�쓌,5.5,��
2022/04/02,11:30,0.582,0.870,0.551,1.072,0.751,0.348,0.605,0.570,���쓌,4.7,��
2022/04/02,11:40,0.582,0.868,0.552,1.069,0.752,0.347,0.602,0.569,�쓌,4.8,��
2022/04/02,11:50,0.582,0.870,0.552,1.067,0.751,0.348,0.603,0.570,�쓌,4.3,��
2022/04/02,12:00,0.584,0.868,0.551,1.071,0.752,0.348,0.603,0.572,���쓌,4.4,��
2022/04/02,12:10,0.582,0.869,0.550,1.068,0.752,0.348,0.603,0.570,���쓌,5.9,��
2022/04/02,12:20,0.580,0.870,0.551,1.072,0.753,0.348,0.603,0.569,�쓌,4.4,��
2022/04/02,12:30,0.583,0.871,0.551,1.070,0.751,0.348,0.603,0.571,�쓌,4.7,��
2022/04/02,12:40,0.583,0.869,0.551,1.068,0.753,0.348,0.603,0.569,�쓌,4.5,��
2022/04/02,12:50,0.582,0.868,0.552,1.068,0.752,0.348,0.601,0.570,�쓌,5.2,��
2022/04/02,13:00,0.583,0.869,0.552,1.071,0.753,0.348,0.605,0.571,���쓌,4.3,��
2022/04/02,13:10,0.582,0.871,0.552,1.071,0.753,0.350,0.604,0.570,�쓌,4.7,��
2022/04/02,13:20,0.583,0.870,0.551,1.070,0.751,0.349,0.603,0.570,���쓌,3.9,��
2022/04/02,13:30,0.583,0.869,0.551,1.071,0.752,0.349,0.603,0.572,�쓌,4.6,��
2022/04/02,13:40,0.582,0.869,0.552,1.070,0.754,0.348,0.603,0.571,�쓌,5.3,��
2022/04/02,13:50,0.582,0.869,0.552,1.071,0.754,0.348,0.603,0.570,�쓌,4.4,��
2022/04/02,14:00,0.582,0.870,0.553,1.070,0.751,0.349,0.604,0.570,��쓌,4.1,��
2022/04/02,14:10,0.582,0.871,0.551,1.073,0.754,0.350,0.602,0.570,�쓌,3.9,��
2022/04/02,14:20,0.583,0.871,0.552,1.071,0.753,0.348,0.604,0.569,�쓌,4.6,��
2022/04/02,14:30,0.582,0.871,0.552,1.072,0.754,0.349,0.605,0.571,�쓌,4.5,��
2022/04/02,14:40,0.583,0.870,0.552,1.071,0.754,0.350,0.603,0.570,�쓌,4.3,��
2022/04/02,14:50,0.582,0.869,0.552,1.071,0.753,0.349,0.604,0.570,��쓌,3.8,��
2022/04/02,15:00,0.583,0.871,0.553,1.070,0.754,0.350,0.604,0.570,�쓌,4.3,��
2022/04/02,15:10,0.582,0.874,0.552,1.070,0.753,0.349,0.604,0.571,�쓌,5.2,��
2022/04/02,15:20,0.583,0.872,0.554,1.071,0.754,0.349,0.604,0.571,�쓌,5.0,��
2022/04/02,15:30,0.584,0.872,0.553,1.072,0.754,0.350,0.604,0.568,�쓌,4.3,��
2022/04/02,15:40,0.583,0.871,0.551,1.073,0.754,0.350,0.604,0.570,�쓌,4.4,��
2022/04/02,15:50,0.585,0.873,0.553,1.069,0.753,0.349,0.605,0.570,�쓌,4.1,��
2022/04/02,16:00,0.583,0.875,0.554,1.070,0.754,0.349,0.604,0.569,�쓌,4.1,��
2022/04/02,16:10,0.582,0.873,0.554,1.072,0.754,0.349,0.602,0.571,�쓌,4.8,��
2022/04/02,16:20,0.580,0.872,0.553,1.071,0.753,0.348,0.604,0.573,�쓌,4.7,��
2022/04/02,16:30,0.582,0.872,0.554,1.070,0.754,0.349,0.604,0.574,��쓌,5.4,��
2022/04/02,16:40,0.583,0.872,0.553,1.072,0.755,0.348,0.605,0.574,��쓌,4.7,��
2022/04/02,16:50,0.582,0.874,0.555,1.069,0.754,0.349,0.603,0.574,��쓌,5.6,��
2022/04/02,17:00,0.584,0.871,0.554,1.070,0.754,0.349,0.604,0.574,��쓌,5.9,��
2022/04/02,17:10,0.584,0.872,0.554,1.071,0.752,0.349,0.604,0.575,��쓌,5.6,��
2022/04/02,17:20,0.584,0.873,0.554,1.071,0.754,0.349,0.603,0.574,��쓌,6.0,��
2022/04/02,17:30,0.583,0.873,0.553,1.070,0.754,0.349,0.604,0.573,��쓌,6.3,��
2022/04/02,17:40,0.585,0.872,0.554,1.070,0.755,0.349,0.605,0.573,��쓌,5.9,��
2022/04/02,17:50,0.584,0.873,0.552,1.071,0.754,0.348,0.606,0.574,��쓌,5.0,��
2022/04/02,18:00,0.585,0.872,0.552,1.069,0.756,0.349,0.607,0.573,��쓌,6.2,��
2022/04/02,18:10,0.584,0.873,0.553,1.069,0.754,0.349,0.607,0.573,��,5.7,��
2022/04/02,18:20,0.584,0.873,0.553,1.071,0.756,0.350,0.606,0.573,��쓌,5.5,��
2022/04/02,18:30,0.583,0.873,0.553,1.073,0.756,0.349,0.606,0.572,��쓌,5.4,��
2022/04/02,18:40,0.583,0.873,0.553,1.072,0.754,0.349,0.608,0.573,��쓌,4.9,��
2022/04/02,18:50,0.584,0.871,0.554,1.072,0.755,0.349,0.605,0.573,��쓌,5.6,��
2022/04/02,19:00,0.584,0.871,0.553,1.071,0.756,0.349,0.606,0.570,��쓌,4.5,��
2022/04/02,19:10,0.585,0.874,0.553,1.070,0.753,0.350,0.606,0.573,��쓌,5.3,��
2022/04/02,19:20,0.583,0.872,0.554,1.071,0.754,0.349,0.606,0.572,��쓌,4.6,��
2022/04/02,19:30,0.582,0.873,0.552,1.071,0.755,0.349,0.606,0.572,��쓌,4.9,��
2022/04/02,19:40,0.583,0.873,0.554,1.071,0.754,0.350,0.606,0.572,��쓌,5.1,��
2022/04/02,19:50,0.583,0.872,0.552,1.070,0.753,0.348,0.606,0.572,��쓌,4.7,��
2022/04/02,20:00,0.583,0.871,0.552,1.071,0.755,0.348,0.605,0.572,��쓌,4.2,��
2022/04/02,20:10,0.582,0.874,0.553,1.071,0.754,0.349,0.604,0.571,��,3.6,��
2022/04/02,20:20,0.582,0.875,0.551,1.070,0.755,0.349,0.606,0.572,��,3.9,��
2022/04/02,20:30,0.584,0.873,0.551,1.069,0.755,0.347,0.607,0.572,��,3.7,��
2022/04/02,20:40,0.582,0.871,0.551,1.069,0.755,0.349,0.605,0.573,��,3.6,��
2022/04/02,20:50,0.582,0.873,0.552,1.071,0.752,0.349,0.603,0.572,��,3.7,��
2022/04/02,21:00,0.583,0.871,0.553,1.067,0.756,0.349,0.605,0.571,��,4.5,��
2022/04/02,21:10,0.583,0.874,0.553,1.070,0.754,0.348,0.606,0.571,��,5.0,��
2022/04/02,21:20,0.583,0.873,0.550,1.069,0.754,0.349,0.604,0.570,��,4.2,��
2022/04/02,21:30,0.582,0.873,0.552,1.071,0.754,0.348,0.604,0.572,��,4.0,��
2022/04/02,21:40,0.584,0.873,0.552,1.072,0.754,0.349,0.604,0.571,��,3.5,��
2022/04/02,21:50,0.582,0.871,0.552,1.070,0.755,0.349,0.604,0.571,��,4.4,��
2022/04/02,22:00,0.582,0.872,0.552,1.072,0.754,0.349,0.604,0.572,��쐼,4.6,��
2022/04/02,22:10,0.584,0.872,0.552,1.070,0.753,0.348,0.603,0.570,��쐼,4.0,��
2022/04/02,22:20,0.583,0.870,0.553,1.073,0.754,0.348,0.604,0.572,��쐼,3.5,��
2022/04/02,22:30,0.580,0.871,0.552,1.071,0.755,0.349,0.604,0.573,��쐼,3.2,��
2022/04/02,22:40,0.584,0.870,0.551,1.070,0.755,0.348,0.604,0.571,��쐼,3.1,��
2022/04/02,22:50,0.581,0.871,0.552,1.071,0.753,0.349,0.605,0.572,��쐼,2.2,��
2022/04/02,23:00,0.583,0.871,0.553,1.070,0.755,0.348,0.605,0.572,��,2.3,��
2022/04/02,23:10,0.581,0.872,0.551,1.071,0.755,0.348,0.603,0.571,��쐼,2.6,��
2022/04/02,23:20,0.583,0.871,0.552,1.069,0.754,0.349,0.604,0.571,��쐼,2.2,��
2022/04/02,23:30,0.584,0.871,0.552,1.069,0.755,0.349,0.604,0.571,��쐼,1.5,��
2022/04/02,23:40,0.582,0.871,0.553,1.070,0.755,0.348,0.603,0.572,��쐼,2.0,��
2022/04/02,23:50,0.583,0.871,0.553,1.071,0.754,0.350,0.604,0.573,��쐼,2.5,��
